Location: Danville Conservation Area
(38.8674°N, 91.5143°W)
Time: 10:18:12
(UTC-06:00)

ISS - Pass Details

Date: 03 December 2021
Orbit: 413 x 422 km, 51.6° (Epoch: 19 January)

Event Time Altitude Azimuth Distance (km) Brightness Sun altitude
Rises 17:49:29 0° 316° (NW) 2,382 0.4 -12.5°
Reaches altitude 10° 17:52:05 10° 337° (NNW) 1,512 -0.9 -13.0°
Maximum altitude 17:54:29 18° 22° (NNE) 1,121 -2.0 -13.4°
Enters shadow 17:54:50 18° 30° (NNE) 1,130 -2.0 -13.5°
